#datetime,building,power
2022-12-22T00:00:00,mcc,37.57
2022-12-22T00:01:00,mcc,45.71
2022-12-22T00:02:00,mcc,39.15
2022-12-22T00:03:00,mcc,36.62
2022-12-22T00:04:00,mcc,36.39
2022-12-22T00:05:00,mcc,37.82
2022-12-22T00:06:00,mcc,36.43
2022-12-22T00:07:00,mcc,37.62
2022-12-22T00:08:00,mcc,37.74
2022-12-22T00:09:00,mcc,36.83
2022-12-22T00:10:00,mcc,36.86
2022-12-22T00:11:00,mcc,36.48
2022-12-22T00:12:00,mcc,37.91
2022-12-22T00:13:00,mcc,38.19
2022-12-22T00:14:00,mcc,38.84
2022-12-22T00:15:00,mcc,37.54
2022-12-22T00:16:00,mcc,36.18
2022-12-22T00:17:00,mcc,37.45
2022-12-22T00:18:00,mcc,48.52
2022-12-22T00:19:00,mcc,47.12
2022-12-22T00:20:00,mcc,38.26
2022-12-22T00:21:00,mcc,38.24
2022-12-22T00:22:00,mcc,37.60
2022-12-22T00:23:00,mcc,34.98
2022-12-22T00:24:00,mcc,34.73
2022-12-22T00:25:00,mcc,34.35
2022-12-22T00:26:00,mcc,34.32
2022-12-22T00:27:00,mcc,35.61
2022-12-22T00:28:00,mcc,37.60
2022-12-22T00:29:00,mcc,36.96
2022-12-22T00:30:00,mcc,38.09
2022-12-22T00:31:00,mcc,37.54
2022-12-22T00:32:00,mcc,37.56
2022-12-22T00:33:00,mcc,37.70
2022-12-22T00:34:00,mcc,36.15
2022-12-22T00:35:00,mcc,38.52
2022-12-22T00:36:00,mcc,38.91
2022-12-22T00:37:00,mcc,40.97
2022-12-22T00:38:00,mcc,39.18
2022-12-22T00:39:00,mcc,46.26
2022-12-22T00:40:00,mcc,40.23
2022-12-22T00:41:00,mcc,39.38
2022-12-22T00:42:00,mcc,40.21
2022-12-22T00:43:00,mcc,41.20
2022-12-22T00:44:00,mcc,38.70
2022-12-22T00:45:00,mcc,36.32
2022-12-22T00:46:00,mcc,37.87
2022-12-22T00:47:00,mcc,37.59
2022-12-22T00:48:00,mcc,37.83
2022-12-22T00:49:00,mcc,41.68
2022-12-22T00:50:00,mcc,37.40
2022-12-22T00:51:00,mcc,36.92
2022-12-22T00:52:00,mcc,38.86
2022-12-22T00:53:00,mcc,37.14
2022-12-22T00:54:00,mcc,37.66
2022-12-22T00:55:00,mcc,38.41
2022-12-22T00:56:00,mcc,36.04
2022-12-22T00:57:00,mcc,35.02
2022-12-22T00:58:00,mcc,36.28
2022-12-22T00:59:00,mcc,44.58
2022-12-22T01:00:00,mcc,36.54
2022-12-22T01:01:00,mcc,38.27
2022-12-22T01:02:00,mcc,37.00
2022-12-22T01:03:00,mcc,38.56
2022-12-22T01:04:00,mcc,40.24
2022-12-22T01:05:00,mcc,48.57
2022-12-22T01:06:00,mcc,36.05
2022-12-22T01:07:00,mcc,39.06
2022-12-22T01:08:00,mcc,36.82
2022-12-22T01:09:00,mcc,37.85
2022-12-22T01:10:00,mcc,40.41
2022-12-22T01:11:00,mcc,38.34
2022-12-22T01:12:00,mcc,36.20
2022-12-22T01:13:00,mcc,38.43
2022-12-22T01:14:00,mcc,35.30
2022-12-22T01:15:00,mcc,34.94
2022-12-22T01:16:00,mcc,39.10
2022-12-22T01:17:00,mcc,36.91
2022-12-22T01:18:00,mcc,44.67
2022-12-22T01:19:00,mcc,36.93
2022-12-22T01:20:00,mcc,34.73
2022-12-22T01:21:00,mcc,35.12
2022-12-22T01:22:00,mcc,36.63
2022-12-22T01:23:00,mcc,36.25
2022-12-22T01:24:00,mcc,36.78
2022-12-22T01:25:00,mcc,39.16
2022-12-22T01:26:00,mcc,39.02
2022-12-22T01:27:00,mcc,39.66
2022-12-22T01:28:00,mcc,40.12
2022-12-22T01:29:00,mcc,38.75
2022-12-22T01:30:00,mcc,39.75
2022-12-22T01:31:00,mcc,40.70
2022-12-22T01:32:00,mcc,36.34
2022-12-22T01:33:00,mcc,37.36
2022-12-22T01:34:00,mcc,36.73
2022-12-22T01:35:00,mcc,34.30
2022-12-22T01:36:00,mcc,34.03
2022-12-22T01:37:00,mcc,44.24
2022-12-22T01:38:00,mcc,36.15
2022-12-22T01:39:00,mcc,37.69
2022-12-22T01:40:00,mcc,39.36
2022-12-22T01:41:00,mcc,38.15
2022-12-22T01:42:00,mcc,36.99
2022-12-22T01:43:00,mcc,39.16
2022-12-22T01:44:00,mcc,38.57
2022-12-22T01:45:00,mcc,38.29
2022-12-22T01:46:00,mcc,39.48
2022-12-22T01:47:00,mcc,35.97
2022-12-22T01:48:00,mcc,36.20
2022-12-22T01:49:00,mcc,38.65
2022-12-22T01:50:00,mcc,37.71
2022-12-22T01:51:00,mcc,37.60
2022-12-22T01:52:00,mcc,51.07
2022-12-22T01:53:00,mcc,37.74
2022-12-22T01:54:00,mcc,38.25
2022-12-22T01:55:00,mcc,40.03
2022-12-22T01:56:00,mcc,38.97
2022-12-22T01:57:00,mcc,59.31
2022-12-22T01:58:00,mcc,50.89
2022-12-22T01:59:00,mcc,50.49
2022-12-22T02:00:00,mcc,48.88
2022-12-22T02:01:00,mcc,40.73
2022-12-22T02:02:00,mcc,37.67
2022-12-22T02:03:00,mcc,36.39
2022-12-22T02:04:00,mcc,37.98
2022-12-22T02:05:00,mcc,35.87
2022-12-22T02:06:00,mcc,36.13
2022-12-22T02:07:00,mcc,37.62
2022-12-22T02:08:00,mcc,35.11
2022-12-22T02:09:00,mcc,36.04
2022-12-22T02:10:00,mcc,37.77
2022-12-22T02:11:00,mcc,35.90
2022-12-22T02:12:00,mcc,36.66
2022-12-22T02:13:00,mcc,40.02
2022-12-22T02:14:00,mcc,35.78
2022-12-22T02:15:00,mcc,38.19
2022-12-22T02:16:00,mcc,40.78
2022-12-22T02:17:00,mcc,39.20
2022-12-22T02:18:00,mcc,37.14
2022-12-22T02:19:00,mcc,38.98
2022-12-22T02:20:00,mcc,35.90
2022-12-22T02:21:00,mcc,34.81
2022-12-22T02:22:00,mcc,40.12
2022-12-22T02:23:00,mcc,37.34
2022-12-22T02:24:00,mcc,40.55
2022-12-22T02:25:00,mcc,41.48
2022-12-22T02:26:00,mcc,39.42
2022-12-22T02:27:00,mcc,37.62
2022-12-22T02:28:00,mcc,34.37
2022-12-22T02:29:00,mcc,34.68
2022-12-22T02:30:00,mcc,34.72
2022-12-22T02:31:00,mcc,36.32
2022-12-22T02:32:00,mcc,35.51
2022-12-22T02:33:00,mcc,35.55
2022-12-22T02:34:00,mcc,38.52
2022-12-22T02:35:00,mcc,44.60
2022-12-22T02:36:00,mcc,38.17
2022-12-22T02:37:00,mcc,37.28
2022-12-22T02:38:00,mcc,35.69
2022-12-22T02:39:00,mcc,38.54
2022-12-22T02:40:00,mcc,52.64
2022-12-22T02:41:00,mcc,38.05
2022-12-22T02:42:00,mcc,45.09
2022-12-22T02:43:00,mcc,46.40
2022-12-22T02:44:00,mcc,43.00
2022-12-22T02:45:00,mcc,42.54
2022-12-22T02:46:00,mcc,38.06
2022-12-22T02:47:00,mcc,36.05
2022-12-22T02:48:00,mcc,35.81
2022-12-22T02:49:00,mcc,36.15
2022-12-22T02:50:00,mcc,36.56
2022-12-22T02:51:00,mcc,36.96
2022-12-22T02:52:00,mcc,37.93
2022-12-22T02:53:00,mcc,38.68
2022-12-22T02:54:00,mcc,47.04
2022-12-22T02:55:00,mcc,36.57
2022-12-22T02:56:00,mcc,35.08
2022-12-22T02:57:00,mcc,34.60
2022-12-22T02:58:00,mcc,36.91
2022-12-22T02:59:00,mcc,37.41
2022-12-22T03:00:00,mcc,39.07
2022-12-22T03:01:00,mcc,40.25
2022-12-22T03:02:00,mcc,38.69
2022-12-22T03:03:00,mcc,36.12
2022-12-22T03:04:00,mcc,38.20
2022-12-22T03:05:00,mcc,35.86
2022-12-22T03:06:00,mcc,36.80
2022-12-22T03:07:00,mcc,38.41
2022-12-22T03:08:00,mcc,37.48
2022-12-22T03:09:00,mcc,38.89
2022-12-22T03:10:00,mcc,41.48
2022-12-22T03:11:00,mcc,38.07
2022-12-22T03:12:00,mcc,37.14
2022-12-22T03:13:00,mcc,40.27
2022-12-22T03:14:00,mcc,45.08
2022-12-22T03:15:00,mcc,36.61
2022-12-22T03:16:00,mcc,38.95
2022-12-22T03:17:00,mcc,37.70
2022-12-22T03:18:00,mcc,38.48
2022-12-22T03:19:00,mcc,38.89
2022-12-22T03:20:00,mcc,39.34
2022-12-22T03:21:00,mcc,40.32
2022-12-22T03:22:00,mcc,41.34
2022-12-22T03:23:00,mcc,37.55
2022-12-22T03:24:00,mcc,39.47
2022-12-22T03:25:00,mcc,43.17
2022-12-22T03:26:00,mcc,40.32
2022-12-22T03:27:00,mcc,49.79
2022-12-22T03:28:00,mcc,35.91
2022-12-22T03:29:00,mcc,35.18
2022-12-22T03:30:00,mcc,35.22
2022-12-22T03:31:00,mcc,36.61
2022-12-22T03:32:00,mcc,44.38
2022-12-22T03:33:00,mcc,36.30
2022-12-22T03:34:00,mcc,35.43
2022-12-22T03:35:00,mcc,36.63
2022-12-22T03:36:00,mcc,35.13
2022-12-22T03:37:00,mcc,36.07
2022-12-22T03:38:00,mcc,35.94
2022-12-22T03:39:00,mcc,36.66
2022-12-22T03:40:00,mcc,39.33
2022-12-22T03:41:00,mcc,37.24
2022-12-22T03:42:00,mcc,36.00
2022-12-22T03:43:00,mcc,39.17
2022-12-22T03:44:00,mcc,39.25
2022-12-22T03:45:00,mcc,40.04
2022-12-22T03:46:00,mcc,43.68
2022-12-22T03:47:00,mcc,41.55
2022-12-22T03:48:00,mcc,42.23
2022-12-22T03:49:00,mcc,39.83
2022-12-22T03:50:00,mcc,37.96
2022-12-22T03:51:00,mcc,35.89
2022-12-22T03:52:00,mcc,43.46
2022-12-22T03:53:00,mcc,36.02
2022-12-22T03:54:00,mcc,36.04
2022-12-22T03:55:00,mcc,37.81
2022-12-22T03:56:00,mcc,37.60
2022-12-22T03:57:00,mcc,39.05
2022-12-22T03:58:00,mcc,37.43
2022-12-22T03:59:00,mcc,38.96
2022-12-22T04:00:00,mcc,37.93
2022-12-22T04:01:00,mcc,39.47
2022-12-22T04:02:00,mcc,37.87
2022-12-22T04:03:00,mcc,36.92
2022-12-22T04:04:00,mcc,35.28
2022-12-22T04:05:00,mcc,34.77
2022-12-22T04:06:00,mcc,37.72
2022-12-22T04:07:00,mcc,38.42
2022-12-22T04:08:00,mcc,40.47
2022-12-22T04:09:00,mcc,40.85
2022-12-22T04:10:00,mcc,42.78
2022-12-22T04:11:00,mcc,48.53
2022-12-22T04:12:00,mcc,38.58
2022-12-22T04:13:00,mcc,52.14
2022-12-22T04:14:00,mcc,39.93
2022-12-22T04:15:00,mcc,41.00
2022-12-22T04:16:00,mcc,42.35
2022-12-22T04:17:00,mcc,42.36
2022-12-22T04:18:00,mcc,41.86
2022-12-22T04:19:00,mcc,37.45
2022-12-22T04:20:00,mcc,38.27
2022-12-22T04:21:00,mcc,36.60
2022-12-22T04:22:00,mcc,38.22
2022-12-22T04:23:00,mcc,39.44
2022-12-22T04:24:00,mcc,38.10
2022-12-22T04:25:00,mcc,37.84
2022-12-22T04:26:00,mcc,35.42
2022-12-22T04:27:00,mcc,34.38
2022-12-22T04:28:00,mcc,35.41
2022-12-22T04:29:00,mcc,36.57
2022-12-22T04:30:00,mcc,39.92
2022-12-22T04:31:00,mcc,39.55
2022-12-22T04:32:00,mcc,38.82
2022-12-22T04:33:00,mcc,40.35
2022-12-22T04:34:00,mcc,38.30
2022-12-22T04:35:00,mcc,35.99
2022-12-22T04:36:00,mcc,38.37
2022-12-22T04:37:00,mcc,35.46
2022-12-22T04:38:00,mcc,35.92
2022-12-22T04:39:00,mcc,36.06
2022-12-22T04:40:00,mcc,35.28
2022-12-22T04:41:00,mcc,36.33
2022-12-22T04:42:00,mcc,37.46
2022-12-22T04:43:00,mcc,38.69
2022-12-22T04:44:00,mcc,38.66
2022-12-22T04:45:00,mcc,41.15
2022-12-22T04:46:00,mcc,41.01
2022-12-22T04:47:00,mcc,40.27
2022-12-22T04:48:00,mcc,41.69
2022-12-22T04:49:00,mcc,40.74
2022-12-22T04:50:00,mcc,38.38
2022-12-22T04:51:00,mcc,40.71
2022-12-22T04:52:00,mcc,39.96
2022-12-22T04:53:00,mcc,41.24
2022-12-22T04:54:00,mcc,42.20
2022-12-22T04:55:00,mcc,39.74
2022-12-22T04:56:00,mcc,38.20
2022-12-22T04:57:00,mcc,41.66
2022-12-22T04:58:00,mcc,37.73
2022-12-22T04:59:00,mcc,50.50
2022-12-22T05:00:00,mcc,39.00
2022-12-22T05:01:00,mcc,37.62
2022-12-22T05:02:00,mcc,36.71
2022-12-22T05:03:00,mcc,37.13
2022-12-22T05:04:00,mcc,36.61
2022-12-22T05:05:00,mcc,38.34
2022-12-22T05:06:00,mcc,37.87
2022-12-22T05:07:00,mcc,38.58
2022-12-22T05:08:00,mcc,39.35
2022-12-22T05:09:00,mcc,49.09
2022-12-22T05:10:00,mcc,37.96
2022-12-22T05:11:00,mcc,38.17
2022-12-22T05:12:00,mcc,40.94
2022-12-22T05:13:00,mcc,38.62
2022-12-22T05:14:00,mcc,39.11
2022-12-22T05:15:00,mcc,42.22
2022-12-22T05:16:00,mcc,39.77
2022-12-22T05:17:00,mcc,39.61
2022-12-22T05:18:00,mcc,41.32
2022-12-22T05:19:00,mcc,38.51
2022-12-22T05:20:00,mcc,38.47
2022-12-22T05:21:00,mcc,38.41
2022-12-22T05:22:00,mcc,36.67
2022-12-22T05:23:00,mcc,36.20
2022-12-22T05:24:00,mcc,38.52
2022-12-22T05:25:00,mcc,38.39
2022-12-22T05:26:00,mcc,39.54
2022-12-22T05:27:00,mcc,39.81
2022-12-22T05:28:00,mcc,35.91
2022-12-22T05:29:00,mcc,44.67
2022-12-22T05:30:00,mcc,38.72
2022-12-22T05:31:00,mcc,36.47
2022-12-22T05:32:00,mcc,35.71
2022-12-22T05:33:00,mcc,36.34
2022-12-22T05:34:00,mcc,35.02
2022-12-22T05:35:00,mcc,35.06
2022-12-22T05:36:00,mcc,33.87
2022-12-22T05:37:00,mcc,35.07
2022-12-22T05:38:00,mcc,36.19
2022-12-22T05:39:00,mcc,38.76
2022-12-22T05:40:00,mcc,38.70
2022-12-22T05:41:00,mcc,36.48
2022-12-22T05:42:00,mcc,36.57
2022-12-22T05:43:00,mcc,35.96
2022-12-22T05:44:00,mcc,33.25
2022-12-22T05:45:00,mcc,31.73
2022-12-22T05:46:00,mcc,44.15
2022-12-22T05:47:00,mcc,33.00
2022-12-22T05:48:00,mcc,40.57
2022-12-22T05:49:00,mcc,43.71
2022-12-22T05:50:00,mcc,43.11
2022-12-22T05:51:00,mcc,43.76
2022-12-22T05:52:00,mcc,42.89
2022-12-22T05:53:00,mcc,31.94
2022-12-22T05:54:00,mcc,33.08
2022-12-22T05:55:00,mcc,32.82
2022-12-22T05:56:00,mcc,34.43
2022-12-22T05:57:00,mcc,33.60
2022-12-22T05:58:00,mcc,33.43
2022-12-22T05:59:00,mcc,32.29
2022-12-22T06:00:00,mcc,32.01
2022-12-22T06:01:00,mcc,32.60
2022-12-22T06:02:00,mcc,35.29
2022-12-22T06:03:00,mcc,37.59
2022-12-22T06:04:00,mcc,36.72
2022-12-22T06:05:00,mcc,36.34
2022-12-22T06:06:00,mcc,34.77
2022-12-22T06:07:00,mcc,36.82
2022-12-22T06:08:00,mcc,36.43
2022-12-22T06:09:00,mcc,37.02
2022-12-22T06:10:00,mcc,38.43
2022-12-22T06:11:00,mcc,37.37
2022-12-22T06:12:00,mcc,36.25
2022-12-22T06:13:00,mcc,38.53
2022-12-22T06:14:00,mcc,36.55
2022-12-22T06:15:00,mcc,36.03
2022-12-22T06:16:00,mcc,40.18
2022-12-22T06:17:00,mcc,37.21
2022-12-22T06:18:00,mcc,38.07
2022-12-22T06:19:00,mcc,39.24
2022-12-22T06:20:00,mcc,37.19
2022-12-22T06:21:00,mcc,36.71
2022-12-22T06:22:00,mcc,46.27
2022-12-22T06:23:00,mcc,45.14
2022-12-22T06:24:00,mcc,45.56
2022-12-22T06:25:00,mcc,50.13
2022-12-22T06:26:00,mcc,46.86
2022-12-22T06:27:00,mcc,58.87
2022-12-22T06:28:00,mcc,61.15
2022-12-22T06:29:00,mcc,45.57
2022-12-22T06:30:00,mcc,45.20
2022-12-22T06:31:00,mcc,42.98
2022-12-22T06:32:00,mcc,42.78
2022-12-22T06:33:00,mcc,41.43
2022-12-22T06:34:00,mcc,42.20
2022-12-22T06:35:00,mcc,42.25
2022-12-22T06:36:00,mcc,41.07
2022-12-22T06:37:00,mcc,42.41
2022-12-22T06:38:00,mcc,35.40
2022-12-22T06:39:00,mcc,36.28
2022-12-22T06:40:00,mcc,37.34
2022-12-22T06:41:00,mcc,36.91
2022-12-22T06:42:00,mcc,36.03
2022-12-22T06:43:00,mcc,38.24
2022-12-22T06:44:00,mcc,37.46
2022-12-22T06:45:00,mcc,37.03
2022-12-22T06:46:00,mcc,46.95
2022-12-22T06:47:00,mcc,36.83
2022-12-22T06:48:00,mcc,37.95
2022-12-22T06:49:00,mcc,41.58
2022-12-22T06:50:00,mcc,40.25
2022-12-22T06:51:00,mcc,41.24
2022-12-22T06:52:00,mcc,41.07
2022-12-22T06:53:00,mcc,41.01
2022-12-22T06:54:00,mcc,41.79
2022-12-22T06:55:00,mcc,42.93
2022-12-22T06:56:00,mcc,43.24
2022-12-22T06:57:00,mcc,42.17
2022-12-22T06:58:00,mcc,44.73
2022-12-22T06:59:00,mcc,37.78
2022-12-22T07:00:00,mcc,37.83
2022-12-22T07:01:00,mcc,38.72
2022-12-22T07:02:00,mcc,36.15
2022-12-22T07:03:00,mcc,38.40
2022-12-22T07:04:00,mcc,46.16
2022-12-22T07:05:00,mcc,39.45
2022-12-22T07:06:00,mcc,40.77
2022-12-22T07:07:00,mcc,42.28
2022-12-22T07:08:00,mcc,40.31
2022-12-22T07:09:00,mcc,40.20
2022-12-22T07:10:00,mcc,47.30
2022-12-22T07:11:00,mcc,42.96
2022-12-22T07:12:00,mcc,45.31
2022-12-22T07:13:00,mcc,48.23
2022-12-22T07:14:00,mcc,48.30
2022-12-22T07:15:00,mcc,47.39
2022-12-22T07:16:00,mcc,60.72
2022-12-22T07:17:00,mcc,45.48
2022-12-22T07:18:00,mcc,51.05
2022-12-22T07:19:00,mcc,53.93
2022-12-22T07:20:00,mcc,52.05
2022-12-22T07:21:00,mcc,54.51
2022-12-22T07:22:00,mcc,53.55
2022-12-22T07:23:00,mcc,41.77
2022-12-22T07:24:00,mcc,42.80
2022-12-22T07:25:00,mcc,44.16
2022-12-22T07:26:00,mcc,42.35
2022-12-22T07:27:00,mcc,41.91
2022-12-22T07:28:00,mcc,54.81
2022-12-22T07:29:00,mcc,44.30
2022-12-22T07:30:00,mcc,43.27
2022-12-22T07:31:00,mcc,48.32
2022-12-22T07:32:00,mcc,43.95
2022-12-22T07:33:00,mcc,44.41
2022-12-22T07:34:00,mcc,46.37
2022-12-22T07:35:00,mcc,41.39
2022-12-22T07:36:00,mcc,39.73
2022-12-22T07:37:00,mcc,39.97
2022-12-22T07:38:00,mcc,37.40
2022-12-22T07:39:00,mcc,48.33
2022-12-22T07:40:00,mcc,51.34
2022-12-22T07:41:00,mcc,52.17
2022-12-22T07:42:00,mcc,52.72
2022-12-22T07:43:00,mcc,54.30
2022-12-22T07:44:00,mcc,54.22
2022-12-22T07:45:00,mcc,53.78
2022-12-22T07:46:00,mcc,54.84
2022-12-22T07:47:00,mcc,54.67
2022-12-22T07:48:00,mcc,56.33
2022-12-22T07:49:00,mcc,58.33
2022-12-22T07:50:00,mcc,57.52
2022-12-22T07:51:00,mcc,71.36
2022-12-22T07:52:00,mcc,58.38
2022-12-22T07:53:00,mcc,46.23
2022-12-22T07:54:00,mcc,47.15
2022-12-22T07:55:00,mcc,49.85
2022-12-22T07:56:00,mcc,62.65
2022-12-22T07:57:00,mcc,47.40
2022-12-22T07:58:00,mcc,47.72
2022-12-22T07:59:00,mcc,44.51
2022-12-22T08:00:00,mcc,44.42
2022-12-22T08:01:00,mcc,54.96
2022-12-22T08:02:00,mcc,61.39
2022-12-22T08:03:00,mcc,54.16
2022-12-22T08:04:00,mcc,46.36
2022-12-22T08:05:00,mcc,43.41
2022-12-22T08:06:00,mcc,43.98
2022-12-22T08:07:00,mcc,45.73
2022-12-22T08:08:00,mcc,51.35
2022-12-22T08:09:00,mcc,44.87
2022-12-22T08:10:00,mcc,46.16
2022-12-22T08:11:00,mcc,57.64
2022-12-22T08:12:00,mcc,45.08
2022-12-22T08:13:00,mcc,47.43
2022-12-22T08:14:00,mcc,53.65
2022-12-22T08:15:00,mcc,47.00
2022-12-22T08:16:00,mcc,47.43
2022-12-22T08:17:00,mcc,46.94
2022-12-22T08:18:00,mcc,46.94
2022-12-22T08:19:00,mcc,47.60
2022-12-22T08:20:00,mcc,53.94
2022-12-22T08:21:00,mcc,44.27
2022-12-22T08:22:00,mcc,48.48
2022-12-22T08:23:00,mcc,45.44
2022-12-22T08:24:00,mcc,44.70
2022-12-22T08:25:00,mcc,51.92
2022-12-22T08:26:00,mcc,44.65
2022-12-22T08:27:00,mcc,43.48
2022-12-22T08:28:00,mcc,47.59
2022-12-22T08:29:00,mcc,47.64
2022-12-22T08:30:00,mcc,46.20
2022-12-22T08:31:00,mcc,51.32
2022-12-22T08:32:00,mcc,42.23
2022-12-22T08:33:00,mcc,43.36
2022-12-22T08:34:00,mcc,44.69
2022-12-22T08:35:00,mcc,43.37
2022-12-22T08:36:00,mcc,43.69
2022-12-22T08:37:00,mcc,45.42
2022-12-22T08:38:00,mcc,47.44
2022-12-22T08:39:00,mcc,56.22
2022-12-22T08:40:00,mcc,50.15
2022-12-22T08:41:00,mcc,48.82
2022-12-22T08:42:00,mcc,47.38
2022-12-22T08:43:00,mcc,56.07
2022-12-22T08:44:00,mcc,44.08
2022-12-22T08:45:00,mcc,44.00
2022-12-22T08:46:00,mcc,47.78
2022-12-22T08:47:00,mcc,44.42
2022-12-22T08:48:00,mcc,43.77
2022-12-22T08:49:00,mcc,45.41
2022-12-22T08:50:00,mcc,44.01
2022-12-22T08:51:00,mcc,43.98
2022-12-22T08:52:00,mcc,43.39
2022-12-22T08:53:00,mcc,45.60
2022-12-22T08:54:00,mcc,45.84
2022-12-22T08:55:00,mcc,44.18
2022-12-22T08:56:00,mcc,43.24
2022-12-22T08:57:00,mcc,48.31
2022-12-22T08:58:00,mcc,51.03
2022-12-22T08:59:00,mcc,43.72
2022-12-22T09:00:00,mcc,55.68
2022-12-22T09:01:00,mcc,44.30
2022-12-22T09:02:00,mcc,41.51
2022-12-22T09:03:00,mcc,42.99
2022-12-22T09:04:00,mcc,43.26
2022-12-22T09:05:00,mcc,44.73
2022-12-22T09:06:00,mcc,56.77
2022-12-22T09:07:00,mcc,45.77
2022-12-22T09:08:00,mcc,45.34
2022-12-22T09:09:00,mcc,46.28
2022-12-22T09:10:00,mcc,57.67
2022-12-22T09:11:00,mcc,47.05
2022-12-22T09:12:00,mcc,45.66
2022-12-22T09:13:00,mcc,46.55
2022-12-22T09:14:00,mcc,46.87
2022-12-22T09:15:00,mcc,46.58
2022-12-22T09:16:00,mcc,45.14
2022-12-22T09:17:00,mcc,45.41
2022-12-22T09:18:00,mcc,43.48
2022-12-22T09:19:00,mcc,43.34
2022-12-22T09:20:00,mcc,42.20
2022-12-22T09:21:00,mcc,55.28
2022-12-22T09:22:00,mcc,43.39
2022-12-22T09:23:00,mcc,45.50
2022-12-22T09:24:00,mcc,43.35
2022-12-22T09:25:00,mcc,43.99
2022-12-22T09:26:00,mcc,44.22
2022-12-22T09:27:00,mcc,46.95
2022-12-22T09:28:00,mcc,46.05
2022-12-22T09:29:00,mcc,48.00
2022-12-22T09:30:00,mcc,56.04
2022-12-22T09:31:00,mcc,47.29
2022-12-22T09:32:00,mcc,47.27
2022-12-22T09:33:00,mcc,45.34
2022-12-22T09:34:00,mcc,44.27
2022-12-22T09:35:00,mcc,44.78
2022-12-22T09:36:00,mcc,45.78
2022-12-22T09:37:00,mcc,54.68
2022-12-22T09:38:00,mcc,42.70
2022-12-22T09:39:00,mcc,42.65
2022-12-22T09:40:00,mcc,42.97
2022-12-22T09:41:00,mcc,42.54
2022-12-22T09:42:00,mcc,53.80
2022-12-22T09:43:00,mcc,54.70
2022-12-22T09:44:00,mcc,54.91
2022-12-22T09:45:00,mcc,52.50
2022-12-22T09:46:00,mcc,42.32
2022-12-22T09:47:00,mcc,44.72
2022-12-22T09:48:00,mcc,43.65
2022-12-22T09:49:00,mcc,46.02
2022-12-22T09:50:00,mcc,44.59
2022-12-22T09:51:00,mcc,45.39
2022-12-22T09:52:00,mcc,43.43
2022-12-22T09:53:00,mcc,46.95
2022-12-22T09:54:00,mcc,48.42
2022-12-22T09:55:00,mcc,48.06
2022-12-22T09:56:00,mcc,49.93
2022-12-22T09:57:00,mcc,49.17
2022-12-22T09:58:00,mcc,47.87
2022-12-22T09:59:00,mcc,47.25
2022-12-22T10:00:00,mcc,45.63
2022-12-22T10:01:00,mcc,54.46
2022-12-22T10:02:00,mcc,45.39
2022-12-22T10:03:00,mcc,43.87
2022-12-22T10:04:00,mcc,45.87
2022-12-22T10:05:00,mcc,50.73
2022-12-22T10:06:00,mcc,63.39
2022-12-22T10:07:00,mcc,57.89
2022-12-22T10:08:00,mcc,50.55
2022-12-22T10:09:00,mcc,41.24
2022-12-22T10:10:00,mcc,42.52
2022-12-22T10:11:00,mcc,43.55
2022-12-22T10:12:00,mcc,45.76
2022-12-22T10:13:00,mcc,51.62
2022-12-22T10:14:00,mcc,45.35
2022-12-22T10:15:00,mcc,45.15
2022-12-22T10:16:00,mcc,46.84
2022-12-22T10:17:00,mcc,46.89
2022-12-22T10:18:00,mcc,46.50
2022-12-22T10:19:00,mcc,53.38
2022-12-22T10:20:00,mcc,45.55
2022-12-22T10:21:00,mcc,48.63
2022-12-22T10:22:00,mcc,48.59
2022-12-22T10:23:00,mcc,46.44
2022-12-22T10:24:00,mcc,46.21
2022-12-22T10:25:00,mcc,53.69
2022-12-22T10:26:00,mcc,44.23
2022-12-22T10:27:00,mcc,41.05
2022-12-22T10:28:00,mcc,42.79
2022-12-22T10:29:00,mcc,58.09
2022-12-22T10:30:00,mcc,41.96
2022-12-22T10:31:00,mcc,53.20
2022-12-22T10:32:00,mcc,44.52
2022-12-22T10:33:00,mcc,44.98
2022-12-22T10:34:00,mcc,53.99
2022-12-22T10:35:00,mcc,50.77
2022-12-22T10:36:00,mcc,50.13
2022-12-22T10:37:00,mcc,45.80
2022-12-22T10:38:00,mcc,58.08
2022-12-22T10:39:00,mcc,45.97
2022-12-22T10:40:00,mcc,55.29
2022-12-22T10:41:00,mcc,50.57
2022-12-22T10:42:00,mcc,43.53
2022-12-22T10:43:00,mcc,47.97
2022-12-22T10:44:00,mcc,43.98
2022-12-22T10:45:00,mcc,51.13
2022-12-22T10:46:00,mcc,44.75
2022-12-22T10:47:00,mcc,42.45
2022-12-22T10:48:00,mcc,47.23
2022-12-22T10:49:00,mcc,54.38
2022-12-22T10:50:00,mcc,43.76
2022-12-22T10:51:00,mcc,44.47
2022-12-22T10:52:00,mcc,44.94
2022-12-22T10:53:00,mcc,51.72
2022-12-22T10:54:00,mcc,43.00
2022-12-22T10:55:00,mcc,44.82
2022-12-22T10:56:00,mcc,42.83
2022-12-22T10:57:00,mcc,44.64
2022-12-22T10:58:00,mcc,47.77
2022-12-22T10:59:00,mcc,45.61
2022-12-22T11:00:00,mcc,43.63
2022-12-22T11:01:00,mcc,46.99
2022-12-22T11:02:00,mcc,45.59
2022-12-22T11:03:00,mcc,47.06
2022-12-22T11:04:00,mcc,50.97
2022-12-22T11:05:00,mcc,47.91
2022-12-22T11:06:00,mcc,48.46
2022-12-22T11:07:00,mcc,48.48
2022-12-22T11:08:00,mcc,45.44
2022-12-22T11:09:00,mcc,51.79
2022-12-22T11:10:00,mcc,47.70
2022-12-22T11:11:00,mcc,56.76
2022-12-22T11:12:00,mcc,45.96
2022-12-22T11:13:00,mcc,56.44
2022-12-22T11:14:00,mcc,43.96
2022-12-22T11:15:00,mcc,53.15
2022-12-22T11:16:00,mcc,49.15
2022-12-22T11:17:00,mcc,53.43
2022-12-22T11:18:00,mcc,56.16
2022-12-22T11:19:00,mcc,49.11
2022-12-22T11:20:00,mcc,45.26
2022-12-22T11:21:00,mcc,47.01
2022-12-22T11:22:00,mcc,49.99
2022-12-22T11:23:00,mcc,46.76
2022-12-22T11:24:00,mcc,46.38
2022-12-22T11:25:00,mcc,47.61
2022-12-22T11:26:00,mcc,44.89
2022-12-22T11:27:00,mcc,51.88
2022-12-22T11:28:00,mcc,55.75
2022-12-22T11:29:00,mcc,54.73
2022-12-22T11:30:00,mcc,47.93
2022-12-22T11:31:00,mcc,49.80
2022-12-22T11:32:00,mcc,55.83
2022-12-22T11:33:00,mcc,47.05
2022-12-22T11:34:00,mcc,56.17
2022-12-22T11:35:00,mcc,47.09
2022-12-22T11:36:00,mcc,47.64
2022-12-22T11:37:00,mcc,50.09
2022-12-22T11:38:00,mcc,48.31
2022-12-22T11:39:00,mcc,55.95
2022-12-22T11:40:00,mcc,49.46
2022-12-22T11:41:00,mcc,47.28
2022-12-22T11:42:00,mcc,49.03
2022-12-22T11:43:00,mcc,48.41
2022-12-22T11:44:00,mcc,46.89
2022-12-22T11:45:00,mcc,46.25
2022-12-22T11:46:00,mcc,47.06
2022-12-22T11:47:00,mcc,48.26
2022-12-22T11:48:00,mcc,47.70
2022-12-22T11:49:00,mcc,52.23
2022-12-22T11:50:00,mcc,47.75
2022-12-22T11:51:00,mcc,47.67
2022-12-22T11:52:00,mcc,55.97
2022-12-22T11:53:00,mcc,45.95
2022-12-22T11:54:00,mcc,47.70
2022-12-22T11:55:00,mcc,56.37
2022-12-22T11:56:00,mcc,47.58
2022-12-22T11:57:00,mcc,45.33
2022-12-22T11:58:00,mcc,47.17
2022-12-22T11:59:00,mcc,46.25
2022-12-22T12:00:00,mcc,47.65
2022-12-22T12:01:00,mcc,53.66
2022-12-22T12:02:00,mcc,46.17
2022-12-22T12:03:00,mcc,46.59
2022-12-22T12:04:00,mcc,45.06
2022-12-22T12:05:00,mcc,56.62
2022-12-22T12:06:00,mcc,46.69
2022-12-22T12:07:00,mcc,55.49
2022-12-22T12:08:00,mcc,43.56
2022-12-22T12:09:00,mcc,41.79
2022-12-22T12:10:00,mcc,42.90
2022-12-22T12:11:00,mcc,42.05
2022-12-22T12:12:00,mcc,42.03
2022-12-22T12:13:00,mcc,54.76
2022-12-22T12:14:00,mcc,46.68
2022-12-22T12:15:00,mcc,46.92
2022-12-22T12:16:00,mcc,45.41
2022-12-22T12:17:00,mcc,44.98
2022-12-22T12:18:00,mcc,44.03
2022-12-22T12:19:00,mcc,52.46
2022-12-22T12:20:00,mcc,47.86
2022-12-22T12:21:00,mcc,47.22
2022-12-22T12:22:00,mcc,46.06
2022-12-22T12:23:00,mcc,46.86
2022-12-22T12:24:00,mcc,45.59
2022-12-22T12:25:00,mcc,44.95
2022-12-22T12:26:00,mcc,46.07
2022-12-22T12:27:00,mcc,45.97
2022-12-22T12:28:00,mcc,47.40
2022-12-22T12:29:00,mcc,45.98
2022-12-22T12:30:00,mcc,46.07
2022-12-22T12:31:00,mcc,53.74
2022-12-22T12:32:00,mcc,54.29
2022-12-22T12:33:00,mcc,44.63
2022-12-22T12:34:00,mcc,44.42
2022-12-22T12:35:00,mcc,46.00
2022-12-22T12:36:00,mcc,46.50
2022-12-22T12:37:00,mcc,54.38
2022-12-22T12:38:00,mcc,42.84
2022-12-22T12:39:00,mcc,43.69
2022-12-22T12:40:00,mcc,49.52
2022-12-22T12:41:00,mcc,44.60
2022-12-22T12:42:00,mcc,46.08
2022-12-22T12:43:00,mcc,45.12
2022-12-22T12:44:00,mcc,55.96
2022-12-22T12:45:00,mcc,43.03
2022-12-22T12:46:00,mcc,42.61
2022-12-22T12:47:00,mcc,45.13
2022-12-22T12:48:00,mcc,43.54
2022-12-22T12:49:00,mcc,43.23
2022-12-22T12:50:00,mcc,47.38
2022-12-22T12:51:00,mcc,44.08
2022-12-22T12:52:00,mcc,53.93
2022-12-22T12:53:00,mcc,47.12
2022-12-22T12:54:00,mcc,45.53
2022-12-22T12:55:00,mcc,45.91
2022-12-22T12:56:00,mcc,47.73
2022-12-22T12:57:00,mcc,45.90
2022-12-22T12:58:00,mcc,45.90
2022-12-22T12:59:00,mcc,46.01
2022-12-22T13:00:00,mcc,43.15
2022-12-22T13:01:00,mcc,43.08
2022-12-22T13:02:00,mcc,41.58
2022-12-22T13:03:00,mcc,42.56
2022-12-22T13:04:00,mcc,42.58
2022-12-22T13:05:00,mcc,43.40
2022-12-22T13:06:00,mcc,42.59
2022-12-22T13:07:00,mcc,52.34
2022-12-22T13:08:00,mcc,52.20
2022-12-22T13:09:00,mcc,39.67
2022-12-22T13:10:00,mcc,40.19
2022-12-22T13:11:00,mcc,42.99
2022-12-22T13:12:00,mcc,50.23
2022-12-22T13:13:00,mcc,42.24
2022-12-22T13:14:00,mcc,43.43
2022-12-22T13:15:00,mcc,40.39
2022-12-22T13:16:00,mcc,40.63
2022-12-22T13:17:00,mcc,41.52
2022-12-22T13:18:00,mcc,41.10